GFSFLT1_850_temp_057.txt.gz
Temp
22 23 24 25 24 24 24 23 22 22 21 21 20 21 20 20 21 21 21 21 21 21 21 21 21 21 21 21 21 20 20 20 20
23 23 23 23 24 24 24 23 22 22 22 21 21 21 21 20 21 21 21 21 21 21 21 21 20 21 21 21 21 21 20 20 20
21 23 24 24 23 23 23 23 23 21 22 22 21 21 21 21 21 21 21 21 21 21 21 21 21 21 21 21 21 21 20 20 20
23 25 25 23 23 22 23 23 23 22 21 21 21 21 21 21 21 21 22 21 21 21 22 22 21 22 21 20 21 21 21 20 20
22 23 21 21 23 25 23 23 23 23 22 21 21 22 21 21 21 21 21 22 21 21 21 22 21 21 21 20 20 20 20 20 20
24 20 19 21 23 24 24 24 23 23 22 22 21 21 21 21 21 22 21 22 22 21 21 22 21 20 20 20 20 21 21 20 20
22 20 18 20 23 23 23 23 24 23 23 22 21 21 21 21 21 21 22 22 22 22 22 22 21 20 20 21 21 21 21 21 21
22 22 19 19 20 20 20 24 25 23 23 23 22 21 21 21 21 20 20 21 22 22 22 22 22 22 21 21 21 21 21 21 21
21 21 22 21 20 22 23 23 25 24 23 23 22 22 21 20 20 20 19 19 21 22 22 22 22 21 21 21 21 21 21 21 21
20 21 22 21 21 21 23 25 27 27 24 23 23 22 22 21 21 20 20 19 19 20 21 21 21 21 21 21 21 21 22 22 21
18 18 18 21 21 20 21 21 21 21 20 22 23 23 22 22 22 21 21 20 19 19 19 20 20 20 21 22 22 22 22 22 21
16 17 17 18 20 20 18 19 20 19 18 20 22 22 24 23 23 22 22 21 21 20 19 19 20 20 20 21 22 22 22 22 21
15 17 17 17 19 20 20 18 19 18 17 20 23 22 23 24 23 23 23 23 22 21 20 20 20 20 20 21 22 23 23 22 22
14 17 17 16 18 20 20 20 18 20 19 22 24 23 22 24 24 24 23 23 22 22 22 21 20 20 20 21 21 22 22 22 22
14 16 17 16 18 19 20 21 21 20 19 21 23 23 23 24 24 24 23 23 23 23 22 21 21 20 20 21 21 22 23 23 22
14 14 15 17 18 18 18 20 22 22 24 24 24 24 24 23 24 24 23 23 23 22 22 21 21 20 20 21 21 22 23 23 23
10 12 13 15 17 16 17 20 20 22 23 24 24 22 24 24 24 24 23 23 22 22 22 21 20 20 20 20 20 21 22 23 23
10 11 12 12 13 13 13 16 19 21 23 24 24 24 23 23 24 24 24 23 22 22 22 22 22 21 21 20 20 22 22 23 24
10 10 11 12 12 13 14 14 16 19 21 23 23 23 23 22 23 23 23 23 22 21 21 21 21 21 21 21 21 21 21 21 22
9 9 9 10 12 13 13 14 15 16 18 20 21 22 23 22 22 22 23 22 22 21 21 20 20 21 20 20 21 21 21 22 22

GFSFLT1_850_temp_060.txt.gz
Temp
22 23 23 23 23 23 23 23 22 22 22 21 21 21 20 20 20 20 20 20 21 21 20 21 21 20 20 20 20 20 20 20 20
21 23 23 23 23 23 23 23 23 22 22 22 22 21 21 20 21 20 20 20 20 21 21 21 21 21 20 20 21 21 20 20 20
22 21 24 23 23 23 23 24 23 23 23 22 22 22 21 21 21 21 20 20 20 21 21 21 21 20 20 20 20 20 21 20 20
22 21 23 23 23 23 23 23 23 23 22 22 22 22 22 21 21 21 21 21 20 20 20 20 20 20 21 20 20 20 20 20 20
22 21 21 23 24 23 23 23 23 22 22 22 22 23 22 21 21 21 21 21 21 20 20 20 20 21 21 21 20 20 20 21 20
21 21 21 22 22 21 21 21 22 22 22 22 23 22 22 22 21 21 21 21 21 21 20 20 21 21 21 21 20 20 20 20 21
19 18 18 19 22 21 20 20 20 21 21 22 22 22 22 22 22 21 21 21 21 21 21 20 21 20 21 20 20 20 21 21 21
20 18 18 19 21 22 21 21 21 20 21 21 21 22 22 22 22 22 22 21 21 21 21 21 21 21 20 20 20 20 20 21 21
17 17 18 18 17 20 20 22 23 22 21 21 21 22 22 22 22 22 21 22 21 21 22 21 21 21 21 20 20 19 20 21 21
14 15 17 17 17 17 19 17 18 22 22 21 21 21 21 21 22 22 21 21 21 21 21 21 21 21 21 21 21 20 20 21 21
13 13 16 17 17 16 16 18 17 18 20 21 21 21 20 20 21 21 21 21 21 20 20 21 21 21 21 21 21 21 21 21 21
12 14 14 17 17 17 16 18 18 19 19 20 21 22 21 20 20 20 21 21 22 21 20 20 21 21 21 21 21 21 21 21 21
9 13 15 15 17 17 15 17 18 20 21 20 20 21 22 21 20 19 20 22 22 22 21 20 20 20 20 21 21 21 21 21 21
8 10 13 15 15 16 16 17 18 20 20 20 20 20 22 22 21 19 19 21 22 22 22 21 20 20 20 21 21 21 21 21 21
8 10 12 14 14 14 16 17 18 19 19 20 19 20 21 22 21 21 19 19 21 22 21 21 21 20 20 20 21 21 21 21 21
7 10 12 13 14 14 14 15 17 18 20 20 19 20 21 20 22 22 21 20 20 21 21 21 21 21 21 21 21 21 22 22 22
7 9 11 13 14 14 13 15 15 16 19 20 21 21 22 22 22 21 21 22 21 21 22 22 21 21 21 21 21 21 22 22 22
5 6 9 11 13 13 14 16 16 14 16 18 18 21 22 23 21 22 23 21 20 21 23 23 23 22 22 22 22 22 23 23 23
7 8 8 9 10 12 14 14 15 15 14 17 17 20 21 22 22 22 23 22 21 22 21 21 22 22 22 23 23 22 22 21 22
7 9 9 9 10 12 13 14 14 15 14 15 17 18 19 20 21 21 21 22 21 22 21 21 21 21 21 21 21 21 20 20 21

GFSFLT1_850_temp_063.txt.gz
Temp
21 20 21 20 22 22 22 22 22 22 21 21 21 21 21 21 20 20 20 20 19 20 20 20 20 19 19 19 19 19 19 19 19
20 20 21 21 21 22 22 22 22 22 22 22 22 22 21 21 21 20 20 20 20 20 20 20 20 19 20 19 19 19 19 19 20
20 20 20 21 21 22 22 23 23 23 23 23 23 22 22 22 21 21 20 20 20 20 20 20 20 20 20 20 19 19 19 19 19
20 20 21 20 21 21 22 22 23 23 22 22 22 22 22 22 22 21 21 20 20 20 20 20 21 20 20 20 20 20 19 19 19
21 21 21 20 21 21 20 20 20 21 22 22 22 22 22 22 22 22 22 21 20 20 20 20 20 20 20 20 20 20 20 19 19
18 19 18 19 20 19 18 18 19 20 20 21 22 22 22 22 22 22 22 22 21 20 20 20 20 20 20 20 20 20 20 19 19
16 17 16 16 17 17 19 19 20 20 19 19 20 21 22 22 22 22 22 22 22 22 21 20 20 20 20 20 20 21 20 20 20
15 15 16 15 16 16 16 19 20 20 19 19 20 20 20 21 22 22 22 22 22 22 22 21 21 20 20 20 20 20 20 20 20
12 13 14 15 15 16 16 17 18 20 20 20 19 20 20 20 21 21 22 22 22 21 22 22 22 21 20 20 20 20 20 20 20
10 11 11 14 15 15 15 16 16 17 18 20 20 20 20 20 20 21 21 22 22 22 21 21 21 22 21 21 20 20 20 20 20
11 11 12 12 14 16 15 17 16 17 19 19 19 20 20 20 20 20 21 21 22 22 21 21 21 21 21 22 22 21 20 20 20
9 10 12 12 13 15 16 17 17 18 18 18 19 20 19 19 20 20 20 21 21 21 21 21 21 21 20 20 22 22 22 21 20
11 11 12 12 14 15 17 17 17 18 17 18 18 18 18 18 18 18 20 20 20 20 21 21 21 21 20 20 21 22 22 22 21
8 10 12 13 13 14 16 17 16 17 17 18 18 18 18 18 18 18 18 19 20 21 19 19 20 20 20 20 21 21 21 21 21
7 9 12 13 13 14 15 17 16 17 18 17 18 19 19 19 19 19 18 18 18 20 19 19 19 20 20 21 21 21 21 21 20
4 6 8 11 13 14 14 16 17 18 18 16 18 19 19 20 20 20 20 20 20 19 19 19 20 19 20 21 21 22 21 21 21
4 4 5 7 10 13 15 16 16 18 17 16 17 18 19 20 20 21 21 22 21 21 19 19 20 20 19 20 21 22 22 22 21
4 5 5 6 8 10 13 15 16 18 18 15 16 18 19 20 20 21 21 21 22 22 21 21 21 22 21 21 22 23 23 23 23
4 3 5 7 9 9 10 11 14 15 18 17 16 17 19 20 21 21 21 22 21 22 22 22 21 21 21 21 21 21 21 21 22
3 4 5 5 7 8 9 9 10 11 14 15 19 16 17 19 19 22 23 22 21 21 22 22 22 21 20 20 20 21 20 20 20

GFSFLT1_850_temp_069.txt.gz
Temp
21 20 21 21 20 20 20 20 21 21 21 21 21 21 21 21 19 19 19 20 20 20 20 19 19 19 18 19 18 18 18 19 19
20 21 21 21 20 20 19 20 21 21 21 22 22 21 21 21 20 19 19 19 19 20 20 20 19 19 19 19 18 18 19 18 19
19 20 20 20 20 19 19 20 21 21 21 22 22 22 21 21 21 20 19 19 19 20 20 20 20 19 19 19 19 19 18 19 19
16 18 19 19 20 19 19 20 20 21 21 21 22 22 21 21 21 20 20 20 19 20 20 20 20 20 20 19 19 19 19 19 19
13 13 14 16 17 18 18 19 20 21 21 21 22 22 22 21 22 21 20 20 20 20 20 20 20 20 20 20 20 19 19 19 19
10 11 12 13 15 15 15 16 17 18 20 20 20 21 21 21 21 21 20 21 21 20 20 20 20 20 20 20 20 20 20 20 19
11 11 11 12 13 13 14 15 15 16 17 17 18 19 20 21 21 21 21 21 21 21 21 20 20 20 20 20 20 20 20 20 20
11 11 12 12 12 13 13 14 15 15 16 17 17 17 17 20 21 21 21 21 21 21 21 21 21 20 20 20 20 20 20 20 20
10 10 10 12 12 13 13 13 13 14 15 16 17 17 17 17 18 20 20 21 21 21 21 21 20 20 20 20 20 20 21 20 20
8 8 8 9 11 13 13 13 13 14 14 15 16 17 20 18 17 19 19 20 20 20 21 21 21 21 20 21 21 20 20 21 21
7 7 7 8 9 13 14 14 14 14 14 14 15 16 18 18 18 18 18 18 19 20 20 21 21 21 21 20 21 21 21 21 20
6 6 6 6 7 10 13 14 14 15 15 15 15 14 15 16 16 17 18 17 18 20 20 20 21 21 21 21 21 21 21 21 21
6 5 6 6 7 9 11 13 14 14 15 16 15 14 14 16 16 17 16 18 18 18 18 19 20 20 21 21 21 21 21 21 20
4 4 4 7 9 7 7 10 12 14 15 15 15 15 15 15 17 17 17 17 17 17 17 17 18 19 20 20 21 21 21 21 20
4 4 4 4 5 8 6 7 9 11 13 15 15 16 16 16 17 16 17 17 17 17 17 17 17 18 19 20 20 21 21 21 21
3 3 3 4 4 5 6 5 6 9 9 11 14 15 16 16 17 16 18 18 18 18 17 17 17 17 17 18 20 20 21 21 21
2 2 2 2 3 4 4 4 4 5 7 7 10 13 15 16 17 16 17 18 18 19 17 17 17 18 18 17 18 19 21 21 21
1 1 1 1 2 3 3 4 4 4 6 7 7 10 12 14 15 17 16 18 19 19 19 17 17 17 17 17 18 18 20 21 22
2 2 1 2 1 2 2 3 3 3 5 6 6 7 10 11 13 15 15 16 19 19 20 20 19 18 18 18 19 19 19 20 20
2 1 1 1 2 1 1 2 2 2 4 4 6 7 7 8 9 13 12 14 14 18 20 21 20 20 20 20 21 19 19 20 19

GFSFLT1_850_temp_072.txt.gz
Temp
25 24 24 24 23 23 22 22 21 20 19 21 21 21 21 20 20 18 18 19 20 20 20 20 19 18 18 17 19 18 19 18 18
25 25 24 24 23 23 22 22 21 20 20 22 21 21 21 21 21 20 19 19 18 19 19 20 18 18 18 18 18 18 18 19 19
22 23 24 24 23 23 22 22 21 20 20 20 22 22 21 21 21 21 20 18 18 18 19 19 19 18 18 18 18 18 19 18 18
14 15 18 20 21 22 22 22 22 21 20 20 19 20 20 21 20 21 21 20 18 18 18 18 18 19 19 18 18 18 19 18 19
12 13 13 15 17 19 19 21 21 21 21 21 20 20 19 20 21 19 19 21 21 19 18 18 18 19 19 19 18 18 19 19 19
11 11 11 12 14 15 16 17 18 20 21 21 21 19 19 21 21 20 19 20 21 21 19 19 18 18 19 19 18 19 20 19 18
11 11 11 10 12 12 13 15 16 16 17 18 20 20 19 18 20 21 19 20 21 21 20 20 20 19 18 19 19 18 19 19 19
12 11 10 10 11 12 12 12 13 14 14 15 16 17 19 19 18 18 18 18 18 21 21 21 20 20 19 18 19 19 19 19 19
13 13 11 10 10 12 13 13 13 13 13 15 15 16 16 17 18 18 17 19 21 19 19 21 21 20 20 20 19 20 19 19 19
12 11 11 11 10 10 12 13 13 14 14 14 15 15 16 16 17 17 18 17 17 19 20 19 20 21 20 21 21 20 20 20 19
11 10 10 10 11 10 10 12 14 14 14 14 14 15 15 16 16 16 17 17 17 17 17 17 18 19 21 21 21 21 21 21 21
10 10 9 9 9 9 10 10 11 14 15 15 15 14 14 15 15 16 17 17 17 17 18 17 17 17 18 20 22 22 22 21 20
9 9 9 8 8 9 10 9 10 10 10 14 15 15 15 14 13 15 19 17 17 17 17 17 17 18 18 18 21 22 22 22 21
8 8 7 7 8 8 9 9 8 9 9 10 14 15 16 16 15 15 17 16 16 17 17 17 17 18 18 18 18 21 22 22 21
7 7 7 6 7 7 8 8 8 8 8 8 11 15 16 16 16 15 15 14 16 16 17 17 18 18 18 18 18 18 21 22 21
6 5 5 5 4 4 5 6 7 7 7 7 7 10 15 16 15 15 15 15 16 17 16 16 18 18 18 18 18 19 19 21 21
6 5 4 4 3 3 4 4 5 6 6 6 6 7 8 14 16 16 16 14 14 15 16 17 19 17 18 19 19 19 20 20 20
6 5 5 4 3 3 3 3 4 4 4 5 5 6 7 8 11 15 15 13 13 15 16 15 18 18 19 18 18 19 20 20 21
4 4 3 3 3 2 2 2 3 3 3 3 4 5 7 8 10 11 12 12 13 14 16 19 18 19 18 18 18 19 19 19 20
5 4 3 3 2 2 2 1 1 2 2 2 3 3 4 6 6 9 11 11 11 13 15 16 19 19 19 19 20 19 19 19 18

GFSFLT1_850_temp_075.txt.gz
Temp
26 26 24 24 24 22 23 23 23 22 20 19 18 19 18 18 18 19 19 20 20 21 20 19 21 20 18 18 18 18 18 19 19
27 27 26 25 24 24 23 22 23 23 22 20 19 19 18 18 18 19 20 20 20 20 20 20 19 19 18 19 19 18 18 18 20
19 19 18 21 22 24 23 23 23 23 22 20 20 20 19 19 19 18 20 19 19 20 20 20 19 19 19 19 19 18 18 19 19
16 13 13 15 18 20 21 21 23 23 22 21 20 20 20 20 19 19 18 19 19 19 19 19 19 19 19 19 19 18 18 19 20
13 12 10 10 15 18 20 19 19 19 23 23 22 21 20 20 20 20 20 19 19 18 18 19 19 19 19 19 19 19 19 18 20
12 12 12 12 14 15 17 18 18 19 19 21 23 22 22 21 21 20 20 20 19 19 19 19 19 19 19 19 19 19 19 19 19
13 12 11 11 13 13 13 14 17 18 18 18 19 20 22 21 20 20 19 19 19 19 19 20 19 19 19 19 19 19 19 19 19
13 12 12 11 11 12 12 13 14 16 15 16 17 19 19 19 20 19 19 19 19 19 19 19 20 20 19 19 20 20 20 19 19
14 13 13 12 11 11 12 13 13 13 14 15 16 17 17 17 18 19 18 19 18 19 19 19 19 20 20 19 20 21 20 20 20
15 14 13 13 13 12 11 11 11 11 14 14 14 15 16 18 19 18 18 18 18 18 18 19 19 19 19 20 21 21 20 20 20
14 13 13 13 13 13 11 11 12 12 12 14 15 14 15 16 16 17 17 18 18 18 18 18 18 18 19 19 19 20 21 21 20
13 13 13 12 12 12 12 12 11 11 12 13 14 15 15 15 15 16 16 17 17 17 18 18 19 18 18 19 19 19 19 20 20
12 12 11 11 11 11 12 11 12 12 12 12 12 13 15 15 15 15 15 16 16 17 17 18 18 18 18 19 19 19 19 19 19
11 10 10 9 10 10 10 10 10 10 11 11 10 10 11 13 16 16 15 15 15 16 16 17 17 17 19 19 19 19 19 19 19
10 9 9 9 9 8 8 8 8 9 10 9 9 9 10 12 14 15 16 16 16 16 16 16 17 18 19 19 19 19 18 18 19
9 9 8 8 8 7 7 7 7 7 8 7 8 8 8 9 12 13 14 16 16 16 15 16 18 17 19 19 19 19 19 19 19
9 9 8 8 7 7 6 6 6 6 6 6 6 7 7 8 9 11 12 13 16 16 16 17 17 17 17 18 19 19 19 20 20
8 8 7 6 5 5 6 5 5 5 5 5 5 6 6 7 9 10 11 13 13 14 15 16 17 17 17 17 17 18 19 19 19
7 7 7 5 5 5 5 4 4 4 4 3 4 4 6 7 8 9 11 12 14 15 15 15 17 17 18 19 19 18 18 19 19
7 8 6 5 4 4 4 3 3 3 2 2 2 3 3 4 5 7 9 10 11 13 15 15 15 17 19 18 19 19 19 19 18